This is the latest recevied weather packets stored in our database for station/object K1RTA-1. If no packets are shown the sender has not sent any weather packets the latest 10 day(s).
| Time | Temp. | Humidity | Pressure | Rain* | Wind** | Luminosity | Snow |
|---|---|---|---|---|---|---|---|
| 1777823487 | 8.33° C | 88% | 1005.3 hPa | 0 mm | - | - | - |
| 1777822588 | 8.89° C | 85% | 1005.3 hPa | 0 mm | - | - | - |
| 1777821688 | 9.44° C | 85% | 1005.2 hPa | 0 mm | - | - | - |
| 1777820788 | 10° C | 85% | 1005.2 hPa | 0 mm | - | - | - |
| 1777819887 | 8.89° C | 89% | 1005.1 hPa | 0 mm | - | - | - |
| 1777818988 | 8.89° C | 89% | 1005.3 hPa | 0 mm | - | - | - |
| 1777818088 | 8.89° C | 90% | 1005.2 hPa | 0 mm | - | - | - |
| 1777817187 | 8.89° C | 91% | 1004.9 hPa | 0 mm | - | - | - |
| 1777816289 | 8.33° C | 92% | 1004.9 hPa | 0 mm | - | - | - |
| 1777815388 | 7.78° C | 92% | 1005 hPa | 0 mm | - | - | - |
| 1777814487 | 7.78° C | 92% | 1005.2 hPa | 0 mm | - | - | - |
| 1777813588 | 7.78° C | 92% | 1005.3 hPa | 0 mm | - | - | - |
| 1777812688 | 8.33° C | 93% | 1005.5 hPa | 0 mm | - | - | - |
| 1777811787 | 7.78° C | 93% | 1005.7 hPa | 0 mm | - | - | - |
| 1777810888 | 7.78° C | 93% | 1005.9 hPa | 0 mm | - | - | - |
| 1777809989 | 7.78° C | 93% | 1005.8 hPa | 0 mm | - | - | - |
| 1777809088 | 7.78° C | 93% | 1006.3 hPa | 0 mm | - | - | - |
| 1777808187 | 7.78° C | 93% | 1006.3 hPa | 0 mm | - | - | - |
| 1777807288 | 7.78° C | 93% | 1006.4 hPa | 0 mm | - | - | - |
| 1777806387 | 7.78° C | 93% | 1006.6 hPa | 0 mm | - | - | - |
| 1777805489 | 7.78° C | 93% | 1006.7 hPa | 0 mm | - | - | - |
| 1777804588 | 7.78° C | 92% | 1006.8 hPa | 0 mm | - | - | - |
| 1777803687 | 8.33° C | 93% | 1007 hPa | 0 mm | - | - | - |
| 1777802788 | 8.33° C | 93% | 1007.2 hPa | 0 mm | - | - | - |
| 1777801888 | 8.33° C | 93% | 1007.2 hPa | 0 mm | - | - | - |
* Rain latest hour (hover to see other rain measurements)
** Current wind speed in m/s (hover to see current wind gust speed)